GalileoSat-27

operational
NORAD ID: 49809 Int'l Des: 2021-116 Owner: EUSPA Country: I-EU Constellation: Galileo
MEOCIRCULAR

About GalileoSat-27

Description loading...

Live Position

Loading 3D Globe...

Upcoming Passes

Altitude History

Altitude vs Time

uPlot chart will show altitude changes over time

Two-Line Element Set

1 49809U 21116A 25297.76970373 -.00000079 00000-0 00000+0 0 9994
2 49809 57.2309 348.0382 0004479 230.6828 128.3505 1.70476452 24162
Epoch: Oct 24, 2025 • Age: 19 hours

Current Status

Altitude 23233.5 km
Velocity 3.67 km/s
Sub-Earth Point 48.55°N, 110.37°W
Launch Date Dec 5, 2021
Age 3.8 years
Type navigation

Technical Details

Classification Payload
Mass 733.00 kg
Dry Mass 660.00 kg
Total Mass 733.00 kg
Length 2.70 m
Diameter 1.60 m
Span 14.50 m
Shape Box+2 pan
Manufacturer OHB
Bus Type Galileo
Phase Status In Orbit
Owner/State EUSPA/I-EU

Large Constellations

Loading constellations...